Location: Newark
(35.6799°N, 139.7636°E)
Time: 23:09:28
(UTC+00:00)

Vanguard 1 Rocket - Pass Details

Date: 15 December 2019
Orbit: 650 x 4226 km, 34.3° (Epoch: 20 January)

Event Time Altitude Azimuth Distance (km) Brightness Sun altitude
Rises 13:25:22 0° 272° (W) 7,421 12.3 -70.3°
Reaches altitude 10° 13:31:08 10° 273° (W) 5,876 11.6 -71.3°
Enters shadow 13:35:20 19° 272° (W) 4,675 11.0 -71.9°
